Weather History for Poplar Bluff, MO

Change the Weather History Date:

Wednesday, November 7, 2012

  Actual Average Record
Temperature  
Mean Temperature 46 °F -  
Max Temperature 57 °F 57 °F 82 °F (1934)
Min Temperature 34 °F 36 °F 17 °F (1959)
Degree Days  
Heating Degree Days 20    
Moisture  
Dew Point 36 °F    
Average Humidity 67    
Maximum Humidity 89    
Minimum Humidity 44    
Precipitation  
Precipitation 0.00 in - - ()
Sea Level Pressure  
Sea Level Pressure 30.08 in    
Wind  
Wind Speed 7 mph (NW)    
Max Wind Speed 17 mph    
Max Gust Speed 23 mph    
Visibility 10 miles    
Events      
Averages and records for this station are not official NWS values.
T = Trace of Precipitation, MM = Missing Value Source: NWS Daily Summary

Daily Weather History Graph

Daily Weather History Graph

Search for Another Location

Airport:

Trip Planner

Search our weather history database for the weather conditions in past years. The results will help you decide how hot, cold, wet, or windy it might be!

Date:

Astronomy

Nov. 07, 2012 Rise Set
Actual Time 6:31 AM CST 4:57 PM CST
Civil Twilight 6:04 AM CST 5:25 PM CST
Nautical Twilight 5:33 AM CST 5:55 PM CST
Astronomical Twilight 5:03 AM CST 6:26 PM CST
Moon No Moon Rise 12:57 PM CST (11/7)
Length of Visible Light 11h 20m
Length of Day
10h 26m
Last Quarter, 43% of the Moon is Illuminated
Nov 7
Last Quarter
Nov 13
New
Nov 20
First Quarter
Nov 28
Full
Dec 6
Last Quarter

Hourly Weather History & Observations

Time (CST) Temp. Windchill Dew Point Humidity Pressure Visibility Wind Dir Wind Speed Gust Speed Precip Events Conditions
12:53 AM 46.9 °F - 42.1 °F 83% 29.97 in 8.0 mi WSW 4.6 mph - N/A   Overcast
1:53 AM 46.9 °F - 41.0 °F 80% 29.97 in 10.0 mi West 5.8 mph - N/A   Overcast
2:53 AM 46.0 °F 43.1 °F 39.0 °F 76% 29.97 in 10.0 mi WNW 5.8 mph - N/A   Clear
3:53 AM 45.0 °F 41.8 °F 37.9 °F 76% 29.97 in 10.0 mi West 5.8 mph - N/A   Clear
4:53 AM 45.0 °F 42.6 °F 37.0 °F 74% 29.99 in 10.0 mi West 4.6 mph - N/A   Mostly Cloudy
5:53 AM 45.0 °F 41.2 °F 37.0 °F 74% 30.00 in 10.0 mi West 6.9 mph - N/A   Overcast
6:53 AM 46.0 °F 43.1 °F 37.0 °F 71% 30.01 in 10.0 mi West 5.8 mph - N/A   Overcast
7:53 AM 46.0 °F 41.9 °F 37.0 °F 71% 30.03 in 10.0 mi WNW 8.1 mph - N/A   Overcast
8:53 AM 48.0 °F - 37.9 °F 68% 30.04 in 10.0 mi NW 8.1 mph - N/A   Overcast
9:53 AM 50.0 °F - 37.0 °F 61% 30.05 in 10.0 mi NW 12.7 mph - N/A   Overcast
10:53 AM 53.1 °F - 36.0 °F 52% 30.06 in 10.0 mi NNW 17.3 mph 23.0 mph N/A   Mostly Cloudy
11:53 AM 54.0 °F - 35.1 °F 49% 30.06 in 10.0 mi North 11.5 mph - N/A   Overcast
12:53 PM 57.0 °F - 35.1 °F 44% 30.06 in 10.0 mi North 17.3 mph - N/A   Scattered Clouds
1:53 PM 55.9 °F - 34.0 °F 44% 30.07 in 10.0 mi North 13.8 mph 19.6 mph N/A   Overcast
2:53 PM 54.0 °F - 35.1 °F 49% 30.09 in 10.0 mi North 10.4 mph 18.4 mph N/A   Overcast
3:53 PM 53.1 °F - 34.0 °F 48% 30.11 in 10.0 mi NNE 11.5 mph - N/A   Partly Cloudy
4:53 PM 50.0 °F - 34.0 °F 54% 30.13 in 10.0 mi NNE 10.4 mph - N/A   Scattered Clouds
5:53 PM 48.0 °F - 33.1 °F 56% 30.15 in 10.0 mi NNE 6.9 mph - N/A   Partly Cloudy
6:53 PM 43.0 °F 39.5 °F 33.1 °F 68% 30.16 in 10.0 mi North 5.8 mph - N/A   Clear
7:53 PM 39.0 °F - 33.1 °F 79% 30.18 in 10.0 mi Calm Calm - N/A   Clear
8:53 PM 39.9 °F 37.8 °F 33.1 °F 77% 30.19 in 10.0 mi NE 3.5 mph - N/A   Clear
9:53 PM 37.0 °F - 33.1 °F 86% 30.19 in 10.0 mi Calm Calm - N/A   Clear
10:53 PM 34.0 °F - 30.9 °F 89% 30.19 in 10.0 mi Calm Calm - N/A   Clear
11:53 PM 34.0 °F - 30.0 °F 85% 30.20 in 10.0 mi Calm Calm - N/A   Clear